This demonstration page uses our WeatherBlox Daily Observations layout. Learn more.

Left ArrowRight Arrow

38.20091, -84.87328

Hourly Observations for April 7, 2020

Temp ( °F °C ) Dew Point ( °F °C ) Humidity (%) Winds ( mph kmh ) Pressure ( in mb ) Visibility ( mi km ) Precip ( " mm )
12:53 am 00:53 Clear 54 12.2 51 10.6 90 90 Calm 29.99 1016 10 16 0.00 0.00
1:53 am 01:53 Mostly Clear 54 12.2 50 10 87 87 SSE 3 6 29.98 1015 10 16 0.00 0.00
2:53 am 02:53 Mostly Cloudy 54 12.2 50 10 87 87 NNW 3 6 29.97 1015 10 16 0.00 0.00
3:53 am 03:53 Clear 52 11.1 49 9.4 89 89 Calm 29.95 1014 10 16 0.00 0.00
4:53 am 04:53 Cloudy 53 11.7 49 9.4 86 86 Calm 29.94 1014 10 16 0.00 0.00
5:53 am 05:53 Mostly Cloudy 53 11.7 50 10 89 89 S 3 6 29.92 1013 10 16 0.00 0.00
6:53 am 06:53 Clear 54 12.2 51 10.6 90 90 SSW 5 7 29.93 1013 10 16 0.00 0.00
7:53 am 07:53 Sunny 55 12.8 50 10 83 83 Calm 29.93 1014 9 14 0.00 0.00
8:53 am 08:53 Sunny 62 16.7 55 12.8 78 78 SW 7 11 29.94 1014 10 16 0.00 0.00
9:53 am 09:53 Mostly Cloudy 67 19.4 56 13.3 68 68 SW 7 11 29.93 1014 10 16 0.00 0.00
10:53 am 10:53 Cloudy 69 20.6 57 13.9 66 66 SW 12 19 29.94 1014 10 16 0.00 0.00
11:53 am 11:53 Mostly Cloudy 73 22.8 59 15 62 62 WSW 10 17 29.92 1013 10 16 0.00 0.00
12:53 pm 12:53 Partly Cloudy 77 25 60 15.6 56 56 W 13 20 29.88 1012 10 16 0.00 0.00
1:53 pm 13:53 Mostly Cloudy 78 25.6 60 15.6 54 54 SW 13 20 29.86 1011 10 16 0.00 0.00
2:53 pm 14:53 Mostly Sunny 79 26.1 58 14.4 49 49 SW 15 24 29.82 1010 10 16 0.00 0.00
3:53 pm 15:53 Sunny 78 25.6 57 13.9 48 48 SSW 18 30 29.79 1009 10 16 0.00 0.00
4:53 pm 16:53 Mostly Cloudy 78 25.6 58 14.4 50 50 SW 14 22 29.78 1008 10 16 0.00 0.00
5:53 pm 17:53 Mostly Cloudy 78 25.6 59 15 52 52 SW 16 26 29.77 1008 10 16 0.00 0.00
6:53 pm 18:53 Sunny 77 25 59 15 54 54 SW 17 28 29.75 1008 10 16 0.00 0.00
7:53 pm 19:53 Sunny 74 23.3 59 15 60 60 SW 10 17 29.75 1007 10 16 0.00 0.00
8:53 pm 20:53 Clear 71 21.7 59 15 66 66 SW 8 13 29.75 1007 10 16 0.00 0.00
9:53 pm 21:53 Mostly Clear 72 22.2 59 15 64 64 SW 10 17 29.75 1008 10 16 0.00 0.00
10:53 pm 22:53 Clear 72 22.2 59 15 64 64 SW 14 22 29.74 1007 10 16 0.00 0.00
11:53 pm 23:53 Clear 72 22.2 60 15.6 66 66 SW 15 24 29.73 1007 10 16 0.00 0.00

Powered by AerisWeather